Location: Kellogg
(38.0159°N, 90.0546°W)
Time: 08:19:07
(UTC+00:00)

Vanguard 1 Rocket - Pass Details

Date: 19 September 2024
Orbit: 650 x 4218 km, 34.3° (Epoch: 05 October)

Event Time Altitude Azimuth Distance (km) Brightness Sun altitude
Rises 07:46:05 0° 226° (SW) 4,435 - -43.0°
Reaches altitude 10° 07:48:33 10° 221° (SW) 3,780 - -42.7°
Exits shadow 07:58:33 52° 149° (SSE) 2,833 9.6 -41.4°
Maximum altitude 07:58:40 52° 147° (SSE) 2,844 9.6 -41.3°
Drops below altitude 10° 08:17:44 10° 79° (E) 6,796 12.4 -38.6°
Sets 08:24:04 0° 76° (ENE) 8,173 13.0 -37.7°
